Location: Vancouver
(49.2500°N, 123.1330°W)
Time: 07:16:15
(UTC-07:00)

Cosmos 676 Rocket - Visible Passes

Search period start: 01 October 2014 00:00
Search period end: 11 October 2014 00:00
Orbit: 756 x 785 km, 74.0° (Epoch: 30 September)

Date Brightness Start Highest point End Pass type
(mag) Time Alt. Az. Time Alt. Az. Time Alt. Az.
01 Oct 6.9 01:56:10 10° NNW 01:56:18 11° NNW 01:56:18 11° NNW visible
02 Oct 7.0 01:20:06 10° N 01:20:20 11° N 01:20:20 11° N visible
03 Oct 7.0 00:44:10 10° N 00:44:24 11° N 00:44:24 11° N visible
04 Oct 7.0 00:08:25 10° N 00:08:29 10° N 00:08:29 10° N visible
07 Oct 7.0 00:01:11 10° N 00:01:12 10° N 00:01:12 10° N visible
10 Oct 6.9 23:18:11 10° N 23:18:17 10° N 23:18:17 10° N visible
